CZ-4B R/B - Orbit

View from above orbital plane
View from above orbital plane
View from above satellite
View from above satellite

Ground track
Ground track

The orbit data is extracted from the following two-line orbital elements,

1 29093U 06015B   13140.49664285  .00007319  00000-0  31205-3 0   218
2 29093 097.5601 214.5376 0102952 190.2295 265.3320 15.18473356389899
Epoch (UTC): 20 May 2013 11:55:09
Eccentricity: 0.0102952
inclination: 97.5601°
perigee height: 439 km
apogee height: 581 km
right ascension of ascending node: 214.5376°
argument of perigee: 190.2295°
revolutions per day: 15.18473356
mean anomaly at epoch: 265.3320°
orbit number at epoch: 38989

The dashed part of the orbit path shows where the satellite is in the earth's shadow,  

Developed and maintained by Chris Peat, Heavens-Above GmbH. Please read the updated FAQ before sending e-mail. Imprint. DLR